This is the latest recevied weather packets stored in our database for station/object KG5MMT-15. If no packets are shown the sender has not sent any weather packets the latest 10 day(s).
| Time | Temp. | Humidity | Pressure | Rain* | Wind** | Luminosity | Snow |
|---|---|---|---|---|---|---|---|
| 1777747644 | 12.78° C | 28% | 0 hPa | 0 mm | - | - | - |
| 1777747346 | 12.78° C | 31% | 0 hPa | 0 mm | - | - | - |
| 1777747044 | 12.22° C | 27% | 0 hPa | 0 mm | - | - | - |
| 1777746744 | 12.22° C | 28% | 0 hPa | 0 mm | - | - | - |
| 1777746444 | 12.22° C | 29% | 0 hPa | 0 mm | - | - | - |
| 1777746144 | 12.22° C | 33% | 0 hPa | 0 mm | - | - | - |
| 1777745846 | 12.22° C | 28% | 0 hPa | 0 mm | - | - | - |
| 1777745544 | 12.22° C | 30% | 0 hPa | 0 mm | - | - | - |
| 1777745244 | 12.22° C | 27% | 0 hPa | 0 mm | - | - | - |
| 1777744944 | 12.22° C | 29% | 0 hPa | 0 mm | - | - | - |
| 1777744644 | 12.22° C | 28% | 0 hPa | 0 mm | - | - | - |
| 1777744344 | 11.11° C | 29% | 0 hPa | 0 mm | - | - | - |
| 1777744044 | 12.22° C | 31% | 0 hPa | 0 mm | - | - | - |
| 1777743744 | 12.22° C | 30% | 0 hPa | 0 mm | - | - | - |
| 1777743444 | 11.67° C | 31% | 0 hPa | 0 mm | - | - | - |
| 1777743144 | 11.67° C | 33% | 0 hPa | 0 mm | - | - | - |
| 1777742844 | 12.22° C | 30% | 0 hPa | 0 mm | - | - | - |
| 1777742544 | 11.67° C | 29% | 0 hPa | 0 mm | - | - | - |
| 1777742244 | 11.67° C | 29% | 0 hPa | 0 mm | - | - | - |
| 1777741944 | 12.22° C | 29% | 0 hPa | 0 mm | - | - | - |
| 1777741644 | 12.22° C | 29% | 0 hPa | 0 mm | - | - | - |
| 1777741344 | 11.67° C | 29% | 0 hPa | 0 mm | - | - | - |
| 1777741044 | 11.67° C | 29% | 0 hPa | 0 mm | - | - | - |
| 1777740744 | 11.67° C | 29% | 0 hPa | 0 mm | - | - | - |
| 1777740444 | 11.67° C | 32% | 0 hPa | 0 mm | - | - | - |
* Rain latest hour (hover to see other rain measurements)
** Current wind speed in m/s (hover to see current wind gust speed)